SCP
0 0 0 0 2 2 1 1 1 1 0 0 0 0 0 0 0 0 0 0 0 0 0 0 0 0 0 0 0 1 0 0
0 0 0 1 2 1 1 1 0 0 0 0 0 0 0 0 0 0 0 0 0 0 0 0 0 0 0 0 0 1 0 0
0 0 0 0 1 1 1 1 0 0 0 0 0 0 0 0 0 0 0 0 0 0 0 0 0 0 1 1 0 1 0 0
0 0 0 0 0 0 0 0 0 0 0 0 0 0 0 0 0 0 0 0 0 0 0 0 0 0 0 1 1 1 0 0
0 0 0 0 0 0 0 0 0 0 0 0 0 0 0 0 0 0 0 0 0 0 0 0 0 0 0 0 1 1 1 0
0 0 0 0 0 0 0 0 0 0 0 0 0 0 0 0 0 0 0 0 0 0 0 0 0 0 0 0 1 1 0 1
0 0 0 0 0 0 0 0 0 0 0 0 0 0 0 0 0 0 0 0 0 0 0 0 0 0 0 0 0 1 1 1
0 0 0 0 0 0 0 0 0 0 0 0 0 0 0 0 0 0 0 0 0 0 0 0 0 0 0 1 1 1 1 1
0 0 0 0 0 0 0 0 0 0 0 0 0 0 0 0 0 0 0 0 0 0 0 0 1 1 0 0 1 1 1 1
0 0 0 0 0 0 0 0 0 0 0 0 0 0 0 -0 -0 -0 0 0 0 0 0 0 1 0 0 0 1 1 1 1
0 0 0 0 0 0 0 0 0 0 0 0 0 0 0 -0 -0 -0 -0 0 0 0 0 0 1 0 0 0 1 1 1 1
0 0 0 0 0 0 0 0 0 0 0 0 0 0 -0 -0 -0 0 0 0 0 0 0 0 0 0 0 1 1 1 1 1
0 0 0 0 0 0 0 0 0 0 0 0 0 0 -0 -0 -0 0 0 0 0 0 0 0 0 0 0 0 1 1 1 1
0 0 0 0 0 0 0 0 0 0 0 0 0 0 -0 -0 -0 -0 0 0 0 0 0 0 0 0 0 0 0 1 1 1
0 0 0 0 0 0 0 0 0 0 0 0 0 -0 -0 -0 -0 -0 -0 0 0 0 0 0 0 0 0 1 1 1 1 1
0 0 0 0 0 0 0 0 0 0 0 0 0 0 -0 -0 -0 -0 0 0 0 0 0 0 0 0 1 1 1 1 0 0
0 0 0 0 0 0 0 0 0 0 0 0 0 0 0 0 -0 -0 -0 0 0 0 0 0 0 0 1 1 1 0 0 0
0 0 0 0 0 0 0 0 0 0 0 0 0 0 0 0 0 0 -0 -0 0 0 0 0 0 0 1 1 1 1 0 0
0 0 0 0 0 0 0 0 0 0 0 0 0 0 0 0 0 0 0 0 0 0 0 0 1 1 1 1 1 1 0 0
Wind_Speed_500mb
18 22 23 25 27 32 34 37 40 43 47 50 49 49 49 48 43 39 37 40 39 34 26 31 30 32 31 29 28 27 26 27
23 28 31 32 33 32 35 39 42 46 51 54 56 57 53 51 49 43 39 40 39 37 31 29 32 33 33 30 29 29 30 29
25 26 27 26 28 32 42 41 44 49 56 60 61 60 57 53 53 46 42 38 36 39 37 26 38 34 32 31 29 33 31 33
28 29 27 30 37 37 37 39 45 54 62 61 55 52 49 50 52 45 43 37 34 33 37 32 33 42 37 36 32 35 33 35
33 31 34 33 33 34 37 44 50 50 50 50 47 44 42 40 46 45 48 44 38 31 33 35 35 44 40 39 34 34 34 35
28 28 28 32 34 37 39 43 41 43 42 40 40 38 37 42 41 38 42 47 40 38 32 37 35 44 39 39 34 35 36 38
24 27 30 32 36 35 36 37 38 41 30 24 27 30 34 41 44 49 53 49 42 38 32 33 34 40 39 39 32 36 41 41
27 29 28 33 31 31 37 35 37 36 26 20 22 22 24 32 39 44 48 55 53 48 36 35 35 38 41 39 32 34 43 41
29 29 27 28 29 30 34 29 35 28 23 20 15 10 8 17 23 29 35 44 49 43 40 35 33 37 41 41 38 40 45 42
27 26 27 29 28 32 25 29 27 22 20 16 11 9 7 10 10 7 17 29 37 39 34 30 32 40 42 40 41 44 46 43
23 26 27 26 28 30 25 27 24 20 21 18 10 8 4 3 8 8 14 24 29 29 28 30 34 41 42 42 44 46 47 42
21 26 26 25 28 28 26 27 23 21 18 17 11 6 5 3 3 5 13 22 26 26 28 30 33 37 39 40 40 45 48 45
18 23 27 26 26 25 27 25 22 20 17 13 12 8 7 7 7 9 14 20 25 29 31 32 33 35 35 40 39 44 49 47
14 20 25 27 27 27 24 25 20 18 15 12 10 10 11 14 15 16 19 25 29 31 32 34 34 34 40 42 35 44 50 50
12 15 22 26 31 31 24 23 19 17 18 16 10 10 9 12 16 19 27 31 33 34 35 36 33 31 38 38 38 42 52 53
10 9 18 22 27 30 20 18 20 21 18 11 6 8 17 15 12 23 28 33 37 36 35 36 34 31 38 42 49 46 51 58
8 6 14 21 25 27 18 20 28 26 20 13 12 15 27 11 16 20 24 33 34 28 31 36 39 44 43 51 61 59 44 56
5 5 13 20 22 23 18 13 24 29 23 27 35 36 51 32 19 16 20 25 24 28 35 42 42 48 53 57 62 38 41 34
6 8 12 18 20 23 27 20 23 29 29 23 31 39 42 47 46 19 16 25 29 31 36 45 45 49 56 61 43 57 41 70
Wind_Direction_500mb
288 295 289 285 277 276 270 273 276 279 278 281 280 281 282 275 270 270 251 243 241 236 235 223 231 245 224 223 206 200 205 203
280 272 276 282 272 275 276 279 281 281 282 281 280 277 273 268 262 257 248 242 241 240 231 230 223 223 236 223 209 199 201 195
281 277 275 270 273 278 284 282 281 281 283 283 281 277 270 262 261 250 244 237 242 242 241 220 215 233 219 214 212 200 198 198
290 293 290 289 290 289 287 283 283 284 285 285 282 276 268 260 256 247 232 234 240 250 240 226 218 223 212 212 210 200 196 195
301 302 298 299 302 295 285 287 289 290 289 285 285 280 265 256 246 241 236 237 244 246 239 224 221 217 214 208 205 198 193 193
304 304 308 305 302 296 298 303 304 307 298 287 280 275 262 257 252 247 245 237 234 240 239 226 225 218 214 206 201 196 190 192
316 318 317 312 306 302 308 309 319 324 312 294 278 276 264 261 260 256 248 242 238 236 243 233 229 216 208 201 198 195 192 190
327 327 318 311 310 307 310 315 322 328 323 310 298 293 271 259 261 257 244 241 238 236 234 223 222 213 201 197 195 194 188 191
329 328 314 321 324 321 321 326 326 326 339 326 327 328 316 279 274 255 247 231 230 224 217 220 214 203 196 197 194 195 186 190
335 331 324 328 329 332 334 335 338 339 330 327 323 329 335 347 348 256 210 203 206 203 209 210 202 194 193 192 192 192 186 186
345 337 336 339 344 346 344 343 346 341 345 342 310 296 297 5 64 98 145 163 174 190 200 199 193 189 189 189 189 189 183 188
352 341 345 345 350 352 350 351 348 341 339 354 346 299 251 220 165 144 153 161 172 185 189 188 184 183 188 188 190 190 182 185
355 348 353 353 353 351 355 352 352 341 329 321 321 296 256 256 237 197 196 183 182 183 179 180 180 179 182 188 191 186 183 184
357 358 8 9 0 357 354 355 348 345 341 344 332 305 277 259 248 225 205 195 188 182 180 181 180 185 188 192 186 179 184 181
360 6 14 19 13 13 6 4 359 353 351 355 340 316 288 270 232 207 196 191 190 187 187 184 187 186 192 177 176 182 183 181
1 16 15 19 15 16 14 12 16 14 10 3 339 345 306 238 183 185 190 188 191 193 195 190 184 186 169 171 168 174 179 179
8 39 29 25 21 17 14 14 20 20 35 48 43 19 25 129 176 175 183 188 192 195 190 184 176 170 168 174 164 152 127 164
49 96 53 31 23 21 9 5 31 33 51 71 65 64 62 74 131 123 153 185 190 190 183 177 176 172 165 172 159 155 133 128
118 127 59 41 34 37 37 34 48 45 69 79 79 74 71 68 71 90 89 133 164 148 163 165 169 165 164 164 151 146 161 146
Wind_Speed_850mb
18 22 23 25 27 32 34 37 40 43 47 50 49 49 49 48 43 39 37 40 39 34 26 31 30 32 31 29 28 27 26 27
23 28 31 32 33 32 35 39 42 46 51 54 56 57 53 51 49 43 39 40 39 37 31 29 32 33 33 30 29 29 30 29
25 26 27 26 28 32 42 41 44 49 56 60 61 60 57 53 53 46 42 38 36 39 37 26 38 34 32 31 29 33 31 33
28 29 27 30 37 37 37 39 45 54 62 61 55 52 49 50 52 45 43 37 34 33 37 32 33 42 37 36 32 35 33 35
33 31 34 33 33 34 37 44 50 50 50 50 47 44 42 40 46 45 48 44 38 31 33 35 35 44 40 39 34 34 34 35
28 28 28 32 34 37 39 43 41 43 42 40 40 38 37 42 41 38 42 47 40 38 32 37 35 44 39 39 34 35 36 38
24 27 30 32 36 35 36 37 38 41 30 24 27 30 34 41 44 49 53 49 42 38 32 33 34 40 39 39 32 36 41 41
27 29 28 33 31 31 37 35 37 36 26 20 22 22 24 32 39 44 48 55 53 48 36 35 35 38 41 39 32 34 43 41
29 29 27 28 29 30 34 29 35 28 23 20 15 10 8 17 23 29 35 44 49 43 40 35 33 37 41 41 38 40 45 42
27 26 27 29 28 32 25 29 27 22 20 16 11 9 7 10 10 7 17 29 37 39 34 30 32 40 42 40 41 44 46 43
23 26 27 26 28 30 25 27 24 20 21 18 10 8 4 3 8 8 14 24 29 29 28 30 34 41 42 42 44 46 47 42
21 26 26 25 28 28 26 27 23 21 18 17 11 6 5 3 3 5 13 22 26 26 28 30 33 37 39 40 40 45 48 45
18 23 27 26 26 25 27 25 22 20 17 13 12 8 7 7 7 9 14 20 25 29 31 32 33 35 35 40 39 44 49 47
14 20 25 27 27 27 24 25 20 18 15 12 10 10 11 14 15 16 19 25 29 31 32 34 34 34 40 42 35 44 50 50
12 15 22 26 31 31 24 23 19 17 18 16 10 10 9 12 16 19 27 31 33 34 35 36 33 31 38 38 38 42 52 53
10 9 18 22 27 30 20 18 20 21 18 11 6 8 17 15 12 23 28 33 37 36 35 36 34 31 38 42 49 46 51 58
8 6 14 21 25 27 18 20 28 26 20 13 12 15 27 11 16 20 24 33 34 28 31 36 39 44 43 51 61 59 44 56
5 5 13 20 22 23 18 13 24 29 23 27 35 36 51 32 19 16 20 25 24 28 35 42 42 48 53 57 62 38 41 34
6 8 12 18 20 23 27 20 23 29 29 23 31 39 42 47 46 19 16 25 29 31 36 45 45 49 56 61 43 57 41 70
Wind_Direction_850mb
288 295 289 285 277 276 270 273 276 279 278 281 280 281 282 275 270 270 251 243 241 236 235 223 231 245 224 223 206 200 205 203
280 272 276 282 272 275 276 279 281 281 282 281 280 277 273 268 262 257 248 242 241 240 231 230 223 223 236 223 209 199 201 195
281 277 275 270 273 278 284 282 281 281 283 283 281 277 270 262 261 250 244 237 242 242 241 220 215 233 219 214 212 200 198 198
290 293 290 289 290 289 287 283 283 284 285 285 282 276 268 260 256 247 232 234 240 250 240 226 218 223 212 212 210 200 196 195
301 302 298 299 302 295 285 287 289 290 289 285 285 280 265 256 246 241 236 237 244 246 239 224 221 217 214 208 205 198 193 193
304 304 308 305 302 296 298 303 304 307 298 287 280 275 262 257 252 247 245 237 234 240 239 226 225 218 214 206 201 196 190 192
316 318 317 312 306 302 308 309 319 324 312 294 278 276 264 261 260 256 248 242 238 236 243 233 229 216 208 201 198 195 192 190
327 327 318 311 310 307 310 315 322 328 323 310 298 293 271 259 261 257 244 241 238 236 234 223 222 213 201 197 195 194 188 191
329 328 314 321 324 321 321 326 326 326 339 326 327 328 316 279 274 255 247 231 230 224 217 220 214 203 196 197 194 195 186 190
335 331 324 328 329 332 334 335 338 339 330 327 323 329 335 347 348 256 210 203 206 203 209 210 202 194 193 192 192 192 186 186
345 337 336 339 344 346 344 343 346 341 345 342 310 296 297 5 64 98 145 163 174 190 200 199 193 189 189 189 189 189 183 188
352 341 345 345 350 352 350 351 348 341 339 354 346 299 251 220 165 144 153 161 172 185 189 188 184 183 188 188 190 190 182 185
355 348 353 353 353 351 355 352 352 341 329 321 321 296 256 256 237 197 196 183 182 183 179 180 180 179 182 188 191 186 183 184
357 358 8 9 0 357 354 355 348 345 341 344 332 305 277 259 248 225 205 195 188 182 180 181 180 185 188 192 186 179 184 181
360 6 14 19 13 13 6 4 359 353 351 355 340 316 288 270 232 207 196 191 190 187 187 184 187 186 192 177 176 182 183 181
1 16 15 19 15 16 14 12 16 14 10 3 339 345 306 238 183 185 190 188 191 193 195 190 184 186 169 171 168 174 179 179
8 39 29 25 21 17 14 14 20 20 35 48 43 19 25 129 176 175 183 188 192 195 190 184 176 170 168 174 164 152 127 164
49 96 53 31 23 21 9 5 31 33 51 71 65 64 62 74 131 123 153 185 190 190 183 177 176 172 165 172 159 155 133 128
118 127 59 41 34 37 37 34 48 45 69 79 79 74 71 68 71 90 89 133 164 148 163 165 169 165 164 164 151 146 161 146